GW1379 Weather Reports


time (UTC)temp
C
wind
direction
speed
KPH
gust
KPH
rain 1hr
cm
rain 24hr
cm
rain mn
cm
humidity
%
barometer
mb
20260507210529 15 0 0.0 3.2 0.18 0.33 0.33 93 1015.4
20260507210340 15 227 0.0 3.2 0.10 0.15 0.15 93 1014.9
20260507210051 15 227 0.0 4.8 0.18 0.30 0.30 93 1015.3
20260507205839 15 227 1.6 3.2 0.10 0.15 0.15 93 1015.0
20260507205529 15 0 0.0 4.8 0.18 0.28 0.28 92 1015.2
20260507205331 15 227 3.2 3.2 0.10 0.15 0.15 93 1014.8
20260507205031 15 0 0.0 4.8 0.18 0.28 0.28 92 1015.2
20260507204555 15 169 0.0 4.8 0.13 0.23 0.23 92 1015.2
20260507204323 15 169 3.2 4.8 0.08 0.13 0.13 92 1014.8
20260507204028 15 238 0.0 3.2 0.10 0.20 0.20 92 1015.1
20260507203817 15 238 0.0 3.2 0.05 0.10 0.10 92 1014.8
20260507203529 15 0 0.0 3.2 0.10 0.20 0.20 92 1015.0
20260507203314 15 238 0.0 3.2 0.05 0.10 0.10 92 1014.8
20260507203042 15 0 0.0 3.2 0.10 0.18 0.18 92 1015.1
20260507202808 15 238 1.6 3.2 0.05 0.10 0.10 92 1014.7
20260507202529 15 238 0.0 3.2 0.10 0.18 0.18 91 1015.0
20260507202307 15 238 0.0 3.2 0.08 0.10 0.10 92 1014.7
20260507202028 15 0 0.0 3.2 0.13 0.18 0.18 91 1015.1
20260507201805 15 238 0.0 3.2 0.05 0.10 0.10 92 1014.7
20260507201542 15 0 0.0 3.2 0.10 0.18 0.18 91 1015.0
20260507201029 15 238 0.0 3.2 0.08 0.15 0.15 91 1015.0
20260507200802 15 238 0.0 3.2 0.05 0.08 0.08 91 1014.8
20260507200530 15 238 1.6 3.2 0.08 0.13 0.13 91 1015.0
20260507200305 15 238 1.6 3.2 0.05 0.05 0.05 91 1014.7
20260507200046 15 238 0.0 3.2 0.08 0.10 0.10 91 1015.0
20260507195530 15 0 0.0 4.8 0.08 0.10 0.10 90 1015.0
20260507195251 15 238 0.0 3.2 0.03 0.05 0.05 91 1014.7
20260507195029 15 0 0.0 4.8 0.05 0.08 0.08 90 1014.9
20260507194751 15 238 1.6 3.2 0.03 0.05 0.05 91 1014.7
20260507194541 15 238 1.6 4.8 0.05 0.08 0.08 90 1015.0
20260507194252 15 238 1.6 4.8 0.03 0.05 0.05 90 1014.7
20260507194028 15 238 0.0 6.4 0.05 0.08 0.08 90 1014.9
20260507193528 15 247 1.6 6.4 0.05 0.08 0.08 90 1014.8
20260507193240 15 240 3.2 8.0 0.03 0.05 0.05 90 1014.5
20260507193041 15 285 3.2 11.3 0.03 0.08 0.08 89 1014.7
20260507192739 15 278 3.2 9.7 0.03 0.05 0.05 90 1014.4
20260507192529 15 266 3.2 11.3 0.00 0.05 0.05 89 1014.7
20260507192237 15 264 4.8 9.7 0.00 0.03 0.03 89 1014.4
20260507192028 15 251 4.8 12.9 0.00 0.05 0.05 88 1014.7
20260507191735 15 254 3.2 11.3 0.00 0.03 0.03 88 1014.4
20260507191547 15 244 4.8 12.9 0.00 0.05 0.05 88 1014.6
20260507191228 15 240 6.4 12.9 0.00 0.03 0.03 88 1014.3
20260507191029 15 257 6.4 12.9 0.00 0.03 0.03 87 1014.6
20260507190727 15 236 8.0 12.9 0.00 0.03 0.03 88 1014.3
20260507190529 15 241 4.8 12.9 0.00 0.03 0.03 87 1014.4
20260507190225 15 242 6.4 12.9 0.00 0.03 0.03 88 1014.1
20260507190050 15 240 4.8 11.3 0.00 0.03 0.03 87 1014.4
20260507185723 15 241 4.8 11.3 0.00 0.03 0.03 87 1014.1
20260507185529 15 200 3.2 11.3 0.00 0.03 0.03 87 1014.4
20260507185029 15 236 4.8 14.5 0.00 0.03 0.03 87 1014.3
20260507184720 15 238 6.4 14.5 0.00 0.03 0.03 87 1014.0
20260507184542 15 240 4.8 14.5 0.00 0.03 0.03 87 1014.3
20260507184219 15 232 6.4 14.5 0.00 0.03 0.03 87 1014.0
20260507184028 15 230 3.2 8.0 0.00 0.03 0.03 87 1014.2
20260507183528 15 236 3.2 8.0 0.00 0.03 0.03 87 1014.1
20260507183047 15 231 3.2 6.4 0.00 0.03 0.03 87 1014.0
20260507182714 16 231 3.2 6.4 0.00 0.03 0.03 87 1013.7
20260507182529 15 248 3.2 6.4 0.00 0.03 0.03 87 1014.0
20260507182212 16 227 3.2 6.4 0.00 0.03 0.03 87 1013.7
20260507182029 15 212 1.6 6.4 0.00 0.03 0.03 87 1013.9
20260507181711 16 248 1.6 6.4 0.00 0.03 0.03 87 1013.6
20260507181540 16 214 3.2 6.4 0.00 0.03 0.03 86 1013.9
20260507181208 16 220 3.2 8.0 0.00 0.03 0.03 87 1013.6
20260507181030 16 227 3.2 8.0 0.00 0.03 0.03 86 1013.7
20260507180709 16 244 3.2 8.0 0.00 0.03 0.03 87 1013.6
20260507180530 16 242 3.2 12.9 0.00 0.03 0.03 87 1013.8
20260507180205 16 259 3.2 12.9 0.00 0.03 0.03 87 1013.5
20260507180052 16 240 3.2 12.9 0.00 0.03 0.03 86 1013.7
20260507175529 16 217 3.2 12.9 0.00 0.03 0.03 86 1013.7
20260507175202 16 254 3.2 6.4 0.00 0.03 0.03 87 1013.5
20260507175029 16 184 3.2 8.0 0.00 0.03 0.03 86 1013.7
20260507174701 16 212 3.2 8.0 0.00 0.03 0.03 87 1013.5
20260507174546 16 211 1.6 9.7 0.00 0.03 0.03 86 1013.8
20260507174203 16 238 3.2 9.7 0.00 0.03 0.03 86 1013.4
20260507174029 16 244 3.2 11.3 0.00 0.03 0.03 85 1013.7
20260507173657 16 234 3.2 9.7 0.00 0.03 0.03 85 1013.4
20260507173529 16 207 3.2 11.3 0.00 0.03 0.03 85 1013.8
20260507173156 16 163 4.8 8.0 0.00 0.03 0.03 85 1013.5
20260507173051 16 197 3.2 8.0 0.00 0.03 0.03 84 1013.7
20260507172654 16 220 4.8 12.9 0.00 0.03 0.03 85 1013.5
20260507172529 16 201 3.2 12.9 0.00 0.03 0.03 84 1013.8
20260507172142 16 192 3.2 14.5 0.00 0.03 0.03 84 1013.5
20260507172028 16 197 4.8 14.5 0.00 0.03 0.03 84 1013.8
20260507171640 16 208 4.8 14.5 0.00 0.03 0.03 84 1013.5
20260507171543 16 181 4.8 14.5 0.00 0.03 0.03 83 1013.7
20260507171138 17 200 4.8 9.7 0.00 0.03 0.03 84 1013.5
20260507171029 16 173 4.8 11.3 0.00 0.03 0.03 83 1013.7
20260507170637 17 207 4.8 11.3 0.00 0.03 0.03 83 1013.4
20260507170530 16 182 3.2 11.3 0.00 0.03 0.03 82 1013.7
20260507170136 17 203 6.4 12.9 0.00 0.03 0.03 82 1013.5
20260507170041 17 184 3.2 12.9 0.00 0.03 0.03 82 1013.6
20260507165634 17 223 6.4 14.5 0.00 0.03 0.03 82 1013.5
20260507165528 17 156 6.4 14.5 0.00 0.03 0.03 81 1013.7
20260507165132 17 182 3.2 16.1 0.00 0.03 0.03 82 1013.4
20260507165032 17 198 6.4 19.3 0.00 0.03 0.03 82 1013.7
20260507164630 17 188 8.0 16.1 0.00 0.03 0.03 82 1013.4
20260507164540 17 178 6.4 19.3 0.00 0.03 0.03 81 1013.7
20260507164133 17 190 9.7 16.1 0.00 0.03 0.03 82 1013.3
20260507164033 17 229 8.0 17.7 0.00 0.03 0.03 81 1013.6
20260507163633 17 192 6.4 19.3 0.00 0.03 0.03 81 1013.4
20260507163529 17 154 6.4 19.3 0.00 0.03 0.03 80 1013.6
20260507163126 17 149 9.7 19.3 0.00 0.03 0.03 81 1013.3
20260507163047 17 175 8.0 19.3 0.00 0.03 0.03 80 1013.5
20260507162624 17 173 6.4 19.3 0.00 0.03 0.03 80 1013.2
20260507162529 17 135 8.0 19.3 0.00 0.03 0.03 80 1013.5
20260507162122 17 203 9.7 19.3 0.00 0.03 0.03 80 1013.3
20260507162029 17 124 6.4 19.3 0.00 0.03 0.03 80 1013.6
20260507161621 17 190 8.0 17.7 0.00 0.03 0.03 80 1013.2
20260507161545 17 187 9.7 17.7 0.00 0.03 0.03 79 1013.6
20260507161029 17 156 9.7 16.1 0.00 0.03 0.03 79 1013.6
20260507160618 18 163 8.0 16.1 0.00 0.03 0.03 78 1013.3
20260507160533 17 170 6.4 16.1 0.00 0.03 0.03 77 1013.6
20260507160116 18 131 9.7 16.1 0.00 0.03 0.03 78 1013.4
20260507160051 17 139 8.0 16.1 0.00 0.03 0.03 77 1013.6
20260507155614 18 158 4.8 16.1 0.00 0.03 0.03 77 1013.3
20260507155528 17 138 8.0 17.7 0.00 0.03 0.03 77 1013.6
20260507155108 18 163 9.7 17.7 0.00 0.03 0.03 76 1013.3
20260507155029 18 208 8.0 17.7 0.00 0.03 0.03 76 1013.5
20260507154606 18 148 8.0 17.7 0.00 0.03 0.03 76 1013.4
20260507154542 18 143 8.0 17.7 0.00 0.03 0.03 75 1013.6
20260507154104 18 161 6.4 14.5 0.00 0.03 0.03 75 1013.4
20260507154028 18 163 6.4 14.5 0.00 0.03 0.03 74 1013.7
20260507153528 18 180 6.4 16.1 0.00 0.03 0.03 74 1013.6
20260507153101 18 185 4.8 16.1 0.00 0.03 0.03 73 1013.3
20260507153049 18 154 6.4 16.1 0.00 0.03 0.03 73 1013.6
20260507152529 18 174 6.4 16.1 0.00 0.03 0.03 73 1013.6
20260507152058 18 159 4.8 14.5 0.00 0.03 0.03 73 1013.4
20260507152029 18 179 4.8 16.1 0.00 0.03 0.03 72 1013.6
20260507151541 18 175 6.4 16.1 0.00 0.03 0.03 72 1013.7
20260507151055 18 180 8.0 14.5 0.00 0.03 0.03 73 1013.5
20260507151029 18 192 6.4 16.1 0.00 0.03 0.03 72 1013.7
20260507150553 18 171 6.4 12.9 0.00 0.03 0.03 74 1013.4
20260507150533 18 188 4.8 14.5 0.00 0.03 0.03 73 1013.6
20260507150051 18 170 4.8 14.5 0.00 0.03 0.03 74 1013.5
20260507150047 18 216 4.8 16.1 0.00 0.03 0.03 74 1013.7
20260507145551 18 202 9.7 16.1 0.00 0.03 0.03 74 1013.5
20260507145532 17 165 8.0 22.5 0.00 0.03 0.03 74 1013.8
20260507145048 18 237 9.7 24.1 0.00 0.03 0.03 75 1013.6
20260507145029 18 211 9.7 25.7 0.00 0.03 0.03 74 1013.8
20260507144547 18 229 12.9 25.7 0.00 0.03 0.03 73 1013.9
20260507144045 18 194 12.9 20.9 0.00 0.03 0.03 72 1013.7
20260507144029 18 194 11.3 22.5 0.00 0.03 0.03 71 1013.9
20260507143547 18 219 12.9 22.5 0.00 0.03 0.03 72 1013.7
20260507143532 18 198 11.3 22.5 0.00 0.03 0.03 71 1013.9
20260507143103 18 206 12.9 24.1 0.00 0.03 0.03 72 1014.0
20260507143042 18 225 12.9 24.1 0.00 0.03 0.03 73 1013.8
20260507142540 18 159 9.7 24.1 0.00 0.03 0.03 75 1013.8
20260507142529 18 184 9.7 24.1 0.00 0.03 0.03 75 1014.0
20260507142028 18 159 11.3 24.1 0.00 0.03 0.03 74 1014.0
20260507141541 18 185 6.4 16.1 0.00 0.03 0.03 74 1014.0
20260507141537 18 135 9.7 14.5 0.00 0.03 0.03 75 1013.7
20260507141035 18 179 8.0 19.3 0.00 0.03 0.03 75 1013.7
20260507141033 18 174 6.4 19.3 0.00 0.03 0.03 74 1014.0
20260507140533 18 233 9.7 19.3 0.00 0.03 0.03 74 1013.7
20260507140528 18 217 9.7 22.5 0.00 0.03 0.03 74 1014.0
20260507140106 18 180 6.4 25.7 0.00 0.03 0.03 74 1013.9
20260507140032 18 180 8.0 22.5 0.00 0.03 0.03 74 1013.7
20260507135530 18 200 12.9 30.6 0.00 0.03 0.03 72 1014.0
20260507135030 18 201 11.3 30.6 0.00 0.03 0.03 71 1014.0
20260507134544 18 171 11.3 27.4 0.00 0.03 0.03 70 1013.8
20260507134028 19 158 11.3 29.0 0.00 0.03 0.03 69 1013.9
20260507134025 19 176 12.9 29.0 0.00 0.03 0.03 69 1013.6
20260507133529 19 234 12.9 35.4 0.00 0.03 0.03 68 1013.6
20260507133527 19 183 14.5 29.0 0.00 0.03 0.03 69 1013.4
20260507133042 19 153 14.5 35.4 0.00 0.03 0.03 67 1013.6
20260507132528 20 202 19.3 33.8 0.00 0.03 0.03 66 1013.6
20260507132520 20 184 20.9 33.8 0.00 0.03 0.03 66 1013.3
20260507132028 20 162 17.7 33.8 0.00 0.03 0.03 65 1013.6
20260507132018 20 157 19.3 33.8 0.00 0.03 0.03 66 1013.3
20260507131543 21 222 14.5 35.4 0.00 0.03 0.03 64 1013.5
20260507131517 21 183 14.5 35.4 0.00 0.03 0.03 65 1013.2
20260507131031 21 178 14.5 35.4 0.00 0.03 0.03 63 1013.4
20260507131016 21 237 14.5 35.4 0.00 0.03 0.03 63 1013.1
20260507130531 21 182 14.5 33.8 0.00 0.03 0.03 64 1013.3
20260507130514 21 200 14.5 30.6 0.00 0.03 0.03 64 1013.0
20260507130050 21 149 12.9 33.8 0.00 0.03 0.03 63 1013.3
20260507130012 21 153 11.3 33.8 0.00 0.03 0.03 63 1013.0
20260507125532 21 142 20.9 33.8 0.00 0.03 0.03 60 1013.3
20260507125510 21 140 20.9 33.8 0.00 0.03 0.03 61 1013.1
20260507125030 21 159 11.3 27.4 0.00 0.03 0.03 62 1013.2
20260507125008 22 132 14.5 27.4 0.00 0.03 0.03 62 1013.0
20260507124549 22 145 16.1 27.4 0.00 0.03 0.03 58 1013.2
20260507124029 23 171 12.9 27.4 0.00 0.03 0.03 53 1013.1
20260507124005 24 151 11.3 27.4 0.00 0.03 0.03 54 1012.8
20260507123531 24 163 9.7 25.7 0.00 0.03 0.03 44 1013.1
20260507123057 24 165 9.7 25.7 0.00 0.03 0.03 45 1013.1
20260507123002 24 165 11.3 25.7 0.00 0.03 0.03 45 1012.8
20260507122532 24 206 9.7 24.1 0.00 0.03 0.03 46 1013.2
20260507122500 25 207 11.3 20.9 0.00 0.03 0.03 46 1012.9
20260507122030 24 223 12.9 24.1 0.00 0.03 0.03 45 1013.2
20260507121958 25 210 14.5 20.9 0.00 0.03 0.03 46 1012.9
20260507121546 23 248 3.2 27.4 0.00 0.03 0.03 49 1013.2
20260507121457 23 252 3.2 27.4 0.00 0.03 0.03 51 1012.9
20260507121029 23 173 6.4 27.4 0.00 0.03 0.03 48 1013.2
20260507120956 23 223 8.0 27.4 0.00 0.03 0.03 47 1013.0
20260507120529 24 244 12.9 29.0 0.00 0.03 0.03 48 1013.2
20260507120454 24 257 11.3 24.1 0.00 0.03 0.03 50 1012.9
20260507120044 23 235 11.3 29.0 0.00 0.03 0.03 49 1013.3
20260507115530 23 239 9.7 19.3 0.00 0.03 0.03 48 1013.3
20260507115451 23 256 9.7 19.3 0.00 0.03 0.03 49 1013.1
20260507115030 23 267 6.4 20.9 0.00 0.03 0.03 50 1013.4
20260507114545 23 243 9.7 20.9 0.00 0.03 0.03 50 1013.5
20260507114448 23 281 9.7 20.9 0.00 0.03 0.03 51 1013.1
20260507114028 23 253 6.4 20.9 0.00 0.03 0.03 54 1013.4
20260507113950 23 218 8.0 20.9 0.00 0.03 0.03 56 1013.2
20260507113530 23 205 9.7 20.9 0.00 0.03 0.03 55 1013.5
20260507113445 23 174 9.7 20.9 0.00 0.03 0.03 55 1013.3
20260507113049 23 200 9.7 20.9 0.00 0.03 0.03 56 1013.5
20260507112943 23 181 9.7 20.9 0.00 0.03 0.03 55 1013.3
20260507112529 23 197 9.7 19.3 0.00 0.03 0.03 54 1013.6
20260507112441 23 225 9.7 19.3 0.00 0.03 0.03 55 1013.3
20260507112028 22 174 11.3 24.1 0.00 0.03 0.03 54 1013.6
20260507111548 23 221 9.7 24.1 0.00 0.03 0.03 54 1013.8
20260507111438 23 209 11.3 24.1 0.00 0.03 0.03 55 1013.5
20260507111029 23 175 11.3 22.5 0.00 0.03 0.03 56 1013.8
20260507110936 23 190 11.3 22.5 0.00 0.03 0.03 56 1013.5
20260507110529 23 186 9.7 20.9 0.00 0.03 0.03 56 1013.8
20260507110046 22 152 8.0 22.5 0.00 0.03 0.03 60 1013.7
20260507105933 22 150 8.0 22.5 0.00 0.03 0.03 59 1013.4
20260507105528 22 200 11.3 24.1 0.00 0.03 0.03 60 1013.8
20260507105029 21 146 4.8 24.1 0.00 0.03 0.03 60 1013.8
20260507104930 22 152 6.4 22.5 0.00 0.03 0.03 61 1013.5
20260507104542 21 128 11.3 20.9 0.00 0.03 0.03 64 1013.8
20260507104428 21 140 9.7 17.7 0.00 0.03 0.03 65 1013.5
20260507104029 20 178 4.8 16.1 0.00 0.03 0.03 65 1013.9
20260507103931 20 205 6.4 16.1 0.00 0.03 0.03 65 1013.6
20260507103528 20 191 8.0 17.7 0.00 0.03 0.03 65 1013.9
20260507103426 20 180 9.7 17.7 0.00 0.03 0.03 65 1013.6
20260507103041 20 180 8.0 19.3 0.00 0.03 0.03 63 1013.9
20260507102924 20 184 8.0 17.7 0.00 0.03 0.03 63 1013.6
20260507102529 19 228 8.0 22.5 0.00 0.03 0.03 62 1013.9
20260507102422 20 216 9.7 20.9 0.00 0.03 0.03 62 1013.7
20260507102028 19 199 9.7 22.5 0.00 0.03 0.03 63 1014.0
20260507101921 20 181 11.3 20.9 0.00 0.03 0.03 64 1013.7
20260507101549 20 227 11.3 24.1 0.00 0.03 0.03 64 1014.0
20260507101419 20 200 11.3 19.3 0.00 0.03 0.03 65 1013.7
20260507101026 20 215 9.7 24.1 0.00 0.03 0.03 64 1014.0
20260507100918 20 192 9.7 19.3 0.00 0.03 0.03 65 1013.6
20260507100529 20 180 9.7 20.9 0.00 0.03 0.03 63 1014.0
20260507100415 20 215 11.3 17.7 0.00 0.03 0.03 63 1013.7
20260507100045 20 202 6.4 19.3 0.00 0.03 0.03 63 1014.0
20260507095914 20 227 8.0 19.3 0.00 0.03 0.03 63 1013.7
20260507095529 20 215 9.7 22.5 0.00 0.03 0.03 62 1013.9
20260507095413 20 199 9.7 20.9 0.00 0.03 0.03 63 1013.7
20260507095029 20 244 11.3 22.5 0.00 0.03 0.03 61 1013.9
20260507094911 21 234 12.9 22.5 0.00 0.03 0.03 61 1013.7
20260507094542 21 213 9.7 22.5 0.00 0.03 0.03 60 1013.9
20260507094409 21 209 11.3 22.5 0.00 0.03 0.03 60 1013.6
20260507094028 21 219 9.7 20.9 0.00 0.03 0.03 59 1013.9
20260507093911 21 246 9.7 20.9 0.00 0.03 0.03 60 1013.7
20260507093530 21 225 8.0 22.5 0.00 0.03 0.03 60 1013.9
20260507093406 21 224 8.0 22.5 0.00 0.03 0.03 62 1013.6
20260507093041 21 215 9.7 22.5 0.00 0.03 0.03 60 1013.9
20260507092904 21 246 11.3 22.5 0.00 0.03 0.03 60 1013.6
20260507092532 21 225 9.7 22.5 0.00 0.03 0.03 61 1013.8
20260507092403 21 265 11.3 22.5 0.00 0.03 0.03 61 1013.5
20260507092028 21 210 9.7 19.3 0.00 0.03 0.03 61 1013.9
20260507091901 21 179 11.3 19.3 0.00 0.03 0.03 62 1013.6
20260507091541 21 190 9.7 19.3 0.00 0.03 0.03 63 1013.8
20260507091400 21 195 9.7 19.3 0.00 0.03 0.03 64 1013.5
20260507091030 20 157 11.3 19.3 0.00 0.03 0.03 64 1013.7
20260507090858 20 207 11.3 19.3 0.00 0.03 0.03 64 1013.5
20260507090531 20 197 8.0 22.5 0.00 0.03 0.03 65 1013.7
20260507090357 20 202 8.0 22.5 0.00 0.03 0.03 66 1013.4
20260507090049 20 222 6.4 22.5 0.00 0.03 0.03 67 1013.7
20260507085855 20 147 9.7 22.5 0.00 0.03 0.03 68 1013.4
20260507085529 20 202 9.7 20.9 0.00 0.03 0.03 67 1013.7
20260507085353 20 215 9.7 20.9 0.00 0.03 0.03 68 1013.4
20260507085030 20 213 8.0 20.9 0.00 0.03 0.03 67 1013.7
20260507084851 20 204 8.0 20.9 0.00 0.03 0.03 68 1013.3
20260507084551 20 178 11.3 19.3 0.00 0.03 0.03 68 1013.5
20260507084350 20 168 8.0 19.3 0.00 0.03 0.03 70 1013.3
20260507084035 19 171 9.7 19.3 0.00 0.03 0.03 69 1013.5
20260507083530 19 177 6.4 20.9 0.00 0.03 0.03 70 1013.4
20260507083346 19 188 8.0 19.3 0.00 0.03 0.03 71 1013.1
20260507083048 18 197 9.7 20.9 0.00 0.03 0.03 71 1013.4
20260507082846 19 202 8.0 17.7 0.00 0.03 0.03 72 1013.1
20260507082528 18 181 9.7 17.7 0.00 0.03 0.03 72 1013.3
20260507082028 18 184 8.0 17.7 0.00 0.03 0.03 72 1013.4
20260507081842 18 165 9.7 17.7 0.00 0.03 0.03 74 1013.1
20260507081541 18 159 8.0 19.3 0.00 0.03 0.03 74 1013.5
20260507081340 18 173 8.0 19.3 0.00 0.03 0.03 74 1013.1
20260507081030 17 171 9.7 19.3 0.00 0.03 0.03 73 1013.3
20260507080529 17 214 9.7 17.7 0.00 0.03 0.03 74 1013.4
20260507080337 18 131 6.4 17.7 0.00 0.03 0.03 75 1013.0
20260507080057 17 154 6.4 19.3 0.00 0.03 0.03 75 1013.3
20260507075835 18 117 9.7 19.3 0.00 0.03 0.03 75 1013.1
20260507075529 17 189 9.7 19.3 0.00 0.03 0.03 75 1013.3
20260507075333 17 124 9.7 19.3 0.00 0.03 0.03 76 1013.0
20260507075028 17 142 8.0 17.7 0.00 0.03 0.03 76 1013.3
20260507074544 17 147 8.0 19.3 0.00 0.03 0.03 75 1013.2
20260507074028 17 163 8.0 19.3 0.00 0.03 0.03 75 1013.2
20260507073828 17 188 8.0 19.3 0.00 0.03 0.03 75 1012.9
20260507073530 17 181 8.0 16.1 0.00 0.03 0.03 76 1013.3
20260507073327 17 176 9.7 16.1 0.00 0.03 0.03 76 1012.9
20260507073052 17 152 8.0 17.7 0.00 0.03 0.03 75 1013.2
20260507072529 17 180 8.0 17.7 0.00 0.03 0.03 75 1013.3
20260507072323 18 146 8.0 20.9 0.00 0.03 0.03 76 1012.9
20260507072028 17 156 8.0 25.7 0.00 0.03 0.03 75 1013.2
20260507071822 18 202 9.7 25.7 0.00 0.03 0.03 76 1012.9
20260507071558 17 180 9.7 25.7 0.00 0.03 0.03 75 1013.2
20260507071032 17 169 6.4 20.9 0.00 0.03 0.03 77 1013.2
20260507070819 18 144 8.0 22.5 0.00 0.03 0.03 78 1012.8
20260507070529 17 204 9.7 22.5 0.00 0.03 0.03 77 1013.1
20260507070043 17 202 6.4 22.5 0.00 0.03 0.03 78 1013.1
20260507065816 18 171 6.4 17.7 0.00 0.03 0.03 78 1012.8
20260507065528 17 178 6.4 17.7 0.00 0.03 0.03 78 1013.0
20260507065028 17 155 6.4 16.1 0.00 0.03 0.03 78 1013.0
20260507064829 17 144 8.0 16.1 0.00 0.03 0.03 78 1012.7
20260507064546 17 164 8.0 19.3 0.00 0.03 0.03 77 1013.0
20260507064311 18 141 8.0 19.3 0.00 0.03 0.03 78 1012.7
20260507064028 17 159 6.4 19.3 0.00 0.03 0.03 78 1013.1
20260507063809 17 175 9.7 19.3 0.00 0.03 0.03 78 1012.7
20260507063529 17 187 8.0 19.3 0.00 0.03 0.03 78 1013.1
20260507063042 17 160 9.7 19.3 0.00 0.03 0.03 77 1013.0
20260507062805 17 190 8.0 14.5 0.00 0.03 0.03 79 1012.7
20260507062528 17 138 6.4 12.9 0.00 0.03 0.03 79 1013.0
20260507062306 17 164 4.8 12.9 0.00 0.03 0.03 81 1012.7
20260507062028 17 177 6.4 11.3 0.00 0.03 0.03 81 1013.0
20260507061802 17 147 4.8 9.7 0.00 0.03 0.03 81 1012.7
20260507061544 17 137 3.2 14.5 0.00 0.03 0.03 81 1012.9
20260507061301 17 163 4.8 14.5 0.00 0.03 0.03 81 1012.6
20260507061028 17 167 3.2 14.5 0.00 0.03 0.03 81 1013.0
20260507060800 17 145 4.8 14.5 0.00 0.03 0.03 81 1012.6
20260507060529 17 142 4.8 14.5 0.00 0.03 0.03 81 1012.8
20260507060252 17 135 6.4 12.9 0.00 0.03 0.03 82 1012.6
20260507060044 17 140 4.8 9.7 0.00 0.03 0.03 82 1012.9
20260507055746 17 172 6.4 9.7 0.00 0.03 0.03 83 1012.6
20260507055529 16 169 3.2 9.7 0.00 0.03 0.03 83 1012.9
20260507055030 16 174 3.2 9.7 0.00 0.03 0.03 84 1012.9
20260507054549 16 165 4.8 9.7 0.00 0.03 0.03 85 1012.8
20260507054241 16 82 4.8 8.0 0.00 0.03 0.03 86 1012.5
20260507054029 16 140 3.2 11.3 0.00 0.03 0.03 86 1012.8
20260507053743 16 148 4.8 11.3 0.00 0.03 0.03 87 1012.5
20260507053529 16 125 3.2 11.3 0.00 0.03 0.03 86 1012.7
20260507053238 16 153 3.2 11.3 0.00 0.03 0.03 87 1012.5
20260507053046 16 151 4.8 11.3 0.00 0.03 0.03 87 1012.7
20260507052528 15 150 4.8 11.3 0.00 0.03 0.03 87 1012.7
20260507052235 16 148 6.4 9.7 0.00 0.03 0.03 88 1012.4
20260507052029 15 155 4.8 9.7 0.00 0.03 0.03 87 1012.7
20260507051732 15 147 3.2 8.0 0.00 0.03 0.03 88 1012.4
20260507051541 15 184 3.2 8.0 0.00 0.03 0.03 88 1012.7
20260507051231 15 142 4.8 8.0 0.00 0.03 0.03 89 1012.3
20260507051029 15 159 1.6 8.0 0.00 0.03 0.03 88 1012.6
20260507050730 15 149 3.2 6.4 0.00 0.03 0.03 89 1012.2
20260507050528 15 132 1.6 8.0 0.00 0.03 0.03 89 1012.5
20260507050228 15 183 1.6 6.4 0.00 0.03 0.03 89 1012.2
20260507050048 15 185 1.6 8.0 0.00 0.03 0.03 89 1012.5
20260507045716 15 188 3.2 6.4 0.00 0.03 0.03 89 1012.1
20260507045528 15 149 3.2 8.0 0.00 0.03 0.03 89 1012.3
20260507045205 15 155 3.2 8.0 0.00 0.03 0.03 90 1011.9
20260507045030 15 138 1.6 8.0 0.00 0.03 0.03 89 1012.2
20260507044703 15 164 3.2 8.0 0.00 0.03 0.03 90 1011.9
20260507044542 15 144 3.2 8.0 0.00 0.03 0.03 89 1012.2
20260507044156 15 152 3.2 8.0 0.00 0.03 0.03 90 1011.8
20260507044029 14 144 3.2 9.7 0.00 0.03 0.03 89 1012.1
20260507043529 14 144 1.6 9.7 0.00 0.03 0.03 90 1011.9
20260507043153 15 126 3.2 8.0 0.00 0.03 0.03 90 1011.6
20260507043041 14 143 1.6 6.4 0.00 0.03 0.03 90 1011.8
20260507042530 14 121 3.2 8.0 0.00 0.03 0.03 90 1011.8
20260507042150 14 144 3.2 8.0 0.00 0.03 0.03 91 1011.5
20260507042028 14 154 3.2 8.0 0.00 0.03 0.03 90 1011.8
20260507041648 14 142 3.2 6.4 0.00 0.03 0.03 91 1011.4
20260507041541 14 136 1.6 6.4 0.00 0.03 0.03 90 1011.7
20260507041145 14 148 3.2 6.4 0.00 0.03 0.03 90 1011.5
20260507041028 13 159 1.6 6.4 0.00 0.03 0.03 90 1011.6
20260507040640 14 144 0.0 4.8 0.00 0.03 0.03 90 1011.3
20260507040530 13 0 0.0 4.8 0.00 0.03 0.03 90 1011.5
20260507040138 14 132 0.0 4.8 0.00 0.03 0.03 90 1011.2
20260507040059 13 0 0.0 4.8 0.00 0.03 0.03 90 1011.5
20260507035640 14 132 1.6 3.2 0.00 0.03 0.03 90 1011.2
20260507035529 13 132 0.0 3.2 0.00 0.03 0.03 89 1011.5
20260507035130 14 132 0.0 0.0 0.00 0.03 0.03 90 1011.2
20260507035028 13 0 0.0 0.0 0.00 0.03 0.03 89 1011.5
20260507034554 13 0 0.0 0.0 0.00 0.03 0.03 89 1011.5
20260507034126 14 132 0.0 0.0 0.00 0.03 0.03 89 1011.2
20260507034031 13 0 0.0 0.0 0.00 0.03 0.03 89 1011.5
20260507033532 14 0 0.0 1.6 0.00 0.03 0.03 88 1011.4
20260507033112 14 132 0.0 1.6 0.03 0.03 0.03 89 1011.2
20260507033045 14 0 0.0 1.6 0.00 0.03 0.03 88 1011.4
20260507032606 14 132 0.0 1.6 0.03 0.03 0.03 89 1011.2
20260507032528 14 132 0.0 1.6 0.03 0.03 0.03 88 1011.5
20260507032105 15 132 0.0 1.6 0.03 0.03 0.03 88 1011.3
20260507032032 14 0 0.0 3.2 0.03 0.03 0.03 88 1011.4
20260507031603 15 132 0.0 3.2 0.03 0.03 0.03 88 1011.2
20260507031541 14 0 0.0 4.8 0.03 0.03 0.03 88 1011.3
20260507031101 15 132 3.2 4.8 0.03 0.03 0.03 88 1011.1
20260507031029 15 132 1.6 4.8 0.03 0.03 0.03 87 1011.3
20260507030539 15 132 1.6 4.8 0.03 0.03 0.03 87 1011.1
20260507030529 15 132 1.6 4.8 0.03 0.03 0.03 87 1011.3
20260507030048 15 132 1.6 4.8 0.03 0.03 0.03 86 1011.3
20260507030037 15 132 3.2 4.8 0.03 0.03 0.03 87 1011.1
20260507025537 15 119 3.2 4.8 0.03 0.03 0.03 86 1010.9
20260507025528 15 119 1.6 4.8 0.03 0.03 0.03 85 1011.2
20260507025035 15 248 0.0 0.0 0.03 0.03 0.03 85 1011.0
20260507025028 15 0 0.0 0.0 0.03 0.03 0.03 84 1011.3
20260507024540 15 0 0.0 3.2 0.03 0.03 0.03 84 1011.3
20260507024032 16 248 0.0 3.2 0.03 0.03 0.03 83 1011.0
20260507023530 16 248 0.0 4.8 0.00 0.00 0.00 81 1011.5
20260507023524 16 248 1.6 3.2 0.00 0.00 0.00 82 1011.2
20260507023047 16 242 0.0 4.8 0.00 0.00 0.00 79 1011.5
20260507023007 16 242 1.6 4.8 0.00 0.00 0.00 79 1011.3
20260507022530 16 0 1.6 6.4 0.00 0.00 0.00 77 1011.6
20260507022510 16 242 1.6 4.8 0.00 0.00 0.00 78 1011.3
20260507022028 16 246 1.6 6.4 0.00 0.00 0.00 76 1011.6
20260507022005 17 246 3.2 6.4 0.00 0.00 0.00 77 1011.3
20260507021546 16 265 1.6 6.4 0.00 0.00 0.00 76 1011.6
20260507021502 17 273 3.2 6.4 0.00 0.00 0.00 76 1011.3
20260507021029 16 266 3.2 6.4 0.00 0.00 0.00 75 1011.6
20260507020530 16 281 3.2 6.4 0.00 0.00 0.00 75 1011.5
20260507020459 17 281 3.2 6.4 0.00 0.00 0.00 76 1011.2
20260507020100 16 300 3.2 6.4 0.00 0.00 0.00 75 1011.5
20260507020002 17 290 3.2 6.4 0.00 0.00 0.00 76 1011.1
20260507015531 16 298 1.6 12.9 0.00 0.00 0.00 75 1011.3
20260507015030 16 315 3.2 12.9 0.00 0.00 0.00 74 1011.2
20260507014950 17 315 3.2 12.9 0.00 0.00 0.00 75 1011.0
20260507014549 16 273 6.4 12.9 0.00 0.00 0.00 74 1011.3
20260507014448 17 289 6.4 12.9 0.00 0.00 0.00 75 1011.0
20260507014030 16 284 4.8 11.3 0.00 0.00 0.00 74 1011.3
20260507013946 17 286 6.4 11.3 0.00 0.00 0.00 75 1010.9
20260507013529 16 273 3.2 12.9 0.00 0.00 0.00 74 1011.2
20260507013049 16 278 4.8 12.9 0.00 0.00 0.00 74 1011.3
20260507012943 17 287 4.8 12.9 0.00 0.00 0.00 74 1010.9
20260507012529 16 265 4.8 14.5 0.00 0.00 0.00 74 1011.1
20260507012029 16 275 6.4 14.5 0.00 0.00 0.00 74 1011.1
20260507011944 16 279 6.4 14.5 0.00 0.00 0.00 74 1010.9
20260507011556 16 283 4.8 14.5 0.00 0.00 0.00 74 1011.0
20260507011029 16 226 6.4 14.5 0.00 0.00 0.00 74 1011.1
20260507010937 16 273 8.0 14.5 0.00 0.00 0.00 75 1010.8
20260507010529 16 263 4.8 14.5 0.00 0.00 0.00 75 1011.1
20260507010438 16 299 6.4 14.5 0.00 0.00 0.00 76 1010.8
20260507010044 15 255 4.8 14.5 0.00 0.00 0.00 76 1011.1
20260507005934 16 270 4.8 6.4 0.00 0.00 0.00 76 1010.8
20260507005529 15 286 3.2 11.3 0.00 0.00 0.00 76 1011.1
20260507005030 15 254 4.8 11.3 0.00 0.00 0.00 76 1011.1
20260507004930 15 273 4.8 9.7 0.00 0.00 0.00 76 1010.8
20260507004552 15 253 1.6 11.3 0.00 0.00 0.00 75 1011.2
20260507004428 15 252 3.2 9.7 0.00 0.00 0.00 76 1010.8
20260507004029 15 244 3.2 9.7 0.00 0.00 0.00 76 1011.2
20260507003530 15 256 3.2 6.4 0.00 0.00 0.00 76 1011.2
20260507003425 15 249 3.2 6.4 0.00 0.00 0.00 76 1010.9
20260507003041 14 238 3.2 4.8 0.00 0.00 0.00 76 1011.2
20260507002924 15 252 3.2 4.8 0.00 0.00 0.00 76 1010.9
20260507002528 14 236 1.6 4.8 0.00 0.00 0.00 74 1011.3
20260507002422 15 222 3.2 4.8 0.00 0.00 0.00 74 1011.0
20260507002029 14 232 0.0 3.2 0.00 0.00 0.00 73 1011.3
20260507001921 15 232 1.6 3.2 0.00 0.00 0.00 74 1011.0
20260507001550 14 0 0.0 6.4 0.00 0.00 0.00 73 1011.3
20260507001028 14 218 1.6 6.4 0.00 0.00 0.00 74 1011.4
20260507000907 15 183 3.2 6.4 0.00 0.00 0.00 74 1011.1
20260507000529 14 0 0.0 4.8 0.00 0.00 0.00 74 1011.4
20260507000042 14 0 1.6 4.8 0.00 0.00 0.00 74 1011.3
20260506235529 14 198 1.6 4.8 0.00 0.00 0.00 74 1011.3
20260506235402 14 199 1.6 4.8 0.00 0.00 0.00 74 1011.0
20260506235030 14 191 1.6 4.8 0.00 0.00 0.00 74 1011.3
20260506234851 14 179 1.6 4.8 0.00 0.00 0.00 74 1011.0
20260506234545 14 196 1.6 4.8 0.00 0.00 0.00 74 1011.2
20260506234029 14 200 1.6 6.4 0.00 0.00 0.00 74 1011.2
20260506233851 14 200 3.2 6.4 0.00 0.00 0.00 75 1011.0
20260506233529 13 198 1.6 6.4 0.00 0.00 0.00 75 1011.2
20260506233339 14 204 3.2 6.4 0.00 0.00 0.00 76 1010.8
20260506233043 13 169 1.6 6.4 0.00 0.00 0.00 76 1011.1
20260506232528 13 197 1.6 6.4 0.00 0.00 0.00 76 1011.1
20260506232332 13 161 1.6 6.4 0.00 0.00 0.00 77 1010.8
20260506232028 13 161 1.6 6.4 0.00 0.00 0.00 76 1011.0
20260506231831 13 161 3.2 6.4 0.00 0.00 0.00 76 1010.7
20260506231541 13 161 0.0 0.0 0.00 0.00 0.00 75 1011.0
20260506231333 13 178 0.0 0.0 0.00 0.00 0.00 76 1010.7
20260506231029 13 0 0.0 0.0 0.00 0.00 0.00 75 1010.9
20260506230529 13 0 0.0 0.0 0.00 0.00 0.00 75 1010.9
20260506230321 13 178 0.0 0.0 0.00 0.00 0.00 75 1010.6
20260506230048 13 0 0.0 0.0 0.00 0.00 0.00 74 1011.0
20260506225819 13 178 0.0 0.0 0.00 0.00 0.00 75 1010.6
20260506225528 13 0 0.0 0.0 0.00 0.00 0.00 74 1010.9
20260506225305 13 178 0.0 0.0 0.00 0.00 0.00 75 1010.7
20260506225028 13 0 0.0 0.0 0.00 0.00 0.00 74 1011.0
20260506224805 14 178 0.0 0.0 0.00 0.00 0.00 74 1010.6
20260506224540 13 0 0.0 0.0 0.00 0.00 0.00 74 1010.8
20260506224259 14 178 0.0 0.0 0.00 0.00 0.00 74 1010.7
20260506224029 13 0 0.0 0.0 0.00 0.00 0.00 73 1011.0
20260506223757 14 178 0.0 4.8 0.00 0.00 0.00 73 1010.7
20260506223529 13 0 0.0 4.8 0.00 0.00 0.00 73 1010.9
20260506223245 14 178 0.0 4.8 0.00 0.00 0.00 73 1010.7
20260506223045 14 0 0.0 4.8 0.00 0.00 0.00 73 1010.9
20260506222744 14 180 1.6 3.2 0.00 0.00 0.00 73 1010.6
20260506222529 14 180 0.0 4.8 0.00 0.00 0.00 72 1010.9
20260506222241 14 195 0.0 4.8 0.00 0.00 0.00 73 1010.6
20260506222030 14 0 0.0 4.8 0.00 0.00 0.00 72 1010.8
20260506221735 14 195 1.6 4.8 0.00 0.00 0.00 72 1010.6
20260506221545 14 195 1.6 4.8 0.00 0.00 0.00 72 1010.8
20260506221234 15 178 1.6 4.8 0.00 0.00 0.00 72 1010.6
20260506221029 14 161 1.6 4.8 0.00 0.00 0.00 72 1010.8
20260506220732 15 157 1.6 4.8 0.00 0.00 0.00 72 1010.5
20260506220529 14 200 0.0 4.8 0.00 0.00 0.00 71 1010.8
20260506220226 15 209 0.0 4.8 0.00 0.00 0.00 72 1010.5
20260506220058 15 0 0.0 8.0 0.00 0.00 0.00 72 1010.7
20260506215728 15 209 1.6 9.7 0.00 0.00 0.00 72 1010.6
20260506215528 15 209 1.6 9.7 0.00 0.00 0.00 72 1010.8
20260506215221 15 213 3.2 9.7 0.00 0.00 0.00 73 1010.6
20260506215028 14 221 4.8 9.7 0.00 0.00 0.00 73 1010.8
20260506214716 14 261 3.2 6.4 0.00 0.00 0.00 74 1010.6
20260506214545 14 215 1.6 4.8 0.00 0.00 0.00 74 1010.6
20260506214030 14 137 0.0 0.0 0.00 0.00 0.00 74 1010.6
20260506213713 14 137 0.0 0.0 0.00 0.00 0.00 74 1010.2
20260506213530 14 0 0.0 0.0 0.00 0.00 0.00 73 1010.4
20260506213050 14 0 0.0 0.0 0.00 0.00 0.00 73 1010.4
20260506212532 14 0 0.0 0.0 0.00 0.00 0.00 72 1010.5
20260506212157 15 137 0.0 0.0 0.00 0.00 0.00 72 1010.3
20260506212030 14 0 0.0 0.0 0.00 0.00 0.00 71 1010.5
20260506211542 14 0 0.0 0.0 0.00 0.00 0.00 71 1010.5
20260506211143 15 137 0.0 0.0 0.00 0.00 0.00 71 1010.3
20260506211028 15 0 0.0 0.0 0.00 0.00 0.00 71 1010.6